Regional Weather Roundup
Issued by NWS Jackson, KY

Home | Current Version | Previous Version | Text Only | Print | Product List | Glossary On
Versions: 1 2 3 4 5 6 7 8 9 10 11 12 13 14 15 16 17 18 19 20 21 22 23 24 25 26 27 28 29 30 31 32 33 34 35 36 37 38 39 40 41 42 43 44 45 46 47 48 49 50
204
ASUS43 KJKL 231910
RWRJKL

EAST KENTUCKY HOURLY WEATHER ROUNDUP
NATIONAL WEATHER SERVICE JACKSON KY
200 PM EST TUE JAN 23 2018

NOTE: "FAIR" INDICATES FEW OR NO CLOUDS BELOW 12,000 FEET WITH
NO SIGNIFICANT WEATHER AND/OR OBSTRUCTIONS TO VISIBILITY.

* THESE REPORTS ARE NOT UNDER NWS QUALITY CONTROL AND MAY NOT
  REPORT WEATHER SUCH AS PRECIPITATION AND FOG.

KYZ079-080-083-085-087-088-110-112-115-119-120-232000
...EASTERN KENTUCKY...

CITY           SKY/WX    TMP DP  RH WIND       PRES   REMARKS
JACKSON        CLOUDY    44  27  51 SW10G21   29.89R
LONDON         CLOUDY    46  28  49 W18       29.93S
SOMERSET*      CLOUDY    43  28  56 W14       29.97S
MONTICELLO*    CLOUDY    46  31  55 W15       29.97S
WILLIAMSBURG*  CLOUDY    46  28  49 W5G16     29.94R
MIDDLESBORO*   PTSUNNY   49  29  47 SW6       29.93S
HARLAN APT*    CLOUDY    48  28  46 SW6G18    29.90S
PIKE CO APT*   CLOUDY    45  28  51 W10G21    29.87R
BIG SANDY APT* CLOUDY    46  28  48 W14G23    29.88R
MOREHEAD APT*  CLOUDY    43  27  52 W15G25    29.91S
ASHLAND*       CLOUDY    46  28  49 W15G23    29.87R
$$

KYZ035-036-041-042-044-050-067-078-099-232000
...CENTRAL KENTUCKY...

CITY           SKY/WX    TMP DP  RH WIND       PRES   REMARKS
MT STERLING*   CLOUDY    41  28  60 W17G25    29.94R
FLEMING/MASON* CLOUDY    40  29  65 W26       29.90S WCI  29
DANVILLE*      CLOUDY    41  28  60 W16       29.96R
LEXINGTON      CLOUDY    41  28  60 W15G26    29.94R
FRANKFORT      CLOUDY    42  28  57 W9G22     29.93R
LOUISVILLE     CLOUDY    43  31  62 W20G26    29.96R
LEBANON*       CLOUDY    41  30  65 SW14      29.97R
GLASGOW*       CLOUDY    42  31  63 W12       30.00R
BOWLING GREEN  CLOUDY    43  31  62 W14       30.02R
$$

KYZ091>093-OHZ055-061-077-WVZ005-015-034-035-042-232000
...SOUTHERN OHIO/WEST VIRGINIA...

CITY           SKY/WX    TMP DP  RH WIND       PRES   REMARKS
COVINGTON      CLOUDY    39  33  79 SW13G21   29.87R WCI  31
COLUMBUS       CLOUDY    41  33  73 SW17G29   29.77S
DAYTON         CLOUDY    37  35  92 W26G33    29.81R WCI  25
WILMINGTON     CLOUDY    39  33  79 SW22      29.81R WCI  29
HUNTINGTON     CLOUDY    45  27  49 W16G29    29.86R
CHARLESTON     PTSUNNY   50  31  48 W13G25    29.82S
BECKLEY          N/A     43  24  47 W18G28    29.79S
BLUEFIELD        N/A     45  24  43 W18G28    29.79S
LOGAN CO APT*  CLOUDY    45  28  53 VRB6G14   29.84R
$$

VAZ002-007-008-TNZ017-027-036-066-071-232000
...SOUTHWEST VIRGINIA/EAST TENNESSEE...

CITY           SKY/WX    TMP DP  RH WIND       PRES   REMARKS
WISE*          CLOUDY    45  32  61 SW14G20   29.85F
JONESVILLE*    MOCLDY    48  28  46 W12G20    29.93S
ABINGDON*      CLOUDY    48  28  46 W17G25    29.86F
BRISTOL          N/A     47  29  49 W14       29.89F
MORRISTOWN*    PTCLDY    50  28  43 W14G20    29.92S
SEVIERVILLE*   PTCLDY    52  28  40 W12G23    29.94S
KNOXVILLE      PTSUNNY   51  31  46 SW16      29.94F
LAFOLLETTE*    CLOUDY    48  28  46 VRB6G14   29.97F
OAK RIDGE      CLOUDY    50  31  48 VRB7      29.96F
CROSSVILLE     CLOUDY    42  28  57 W14G22    29.96S
NASHVILLE      CLOUDY    45  29  53 W8        30.04S
$$

...KEY TO REMARKS...
VSB - VISIBILITY IN MILES
WCI - WIND CHILL INDEX
HX  - HEAT INDEX

$$




USA.gov is the U.S. government's official web portal to all federal, state and local government web resources and services.